Regional Weather Roundup
Issued by NWS Green Bay, WI

Home | Current Version | Previous Version | Text Only | Print | Product List | Glossary On
Versions: 1 2 3 4 5 6 7 8 9 10 11 12 13 14 15 16 17 18 19 20 21 22 23 24 25 26 27 28 29 30 31 32 33 34 35 36 37 38 39 40 41 42 43 44 45 46 47 48 49 50
000
ASUS43 KGRB 270859
RWRGRB

NORTH-CENTRAL AND NORTHEAST WISCONSIN REGIONAL WEATHER ROUNDUP
NATIONAL WEATHER SERVICE GREEN BAY WI
400 AM CDT WED AUG 27 2014

WIZ005-009-010>012-018-019-271000-
NORTH CENTRAL WISCONSIN

CITY           SKY/WX    TMP DP  RH WIND       PRES   REMARKS
IRONWOOD       NOT AVBL
MANITOWISH WTR NOT AVBL
ARBOR VITAE    NOT AVBL
EAGLE RIVER    NOT AVBL
LAND O LAKES   NOT AVBL
RHINELANDER    LGT RAIN  55  54  96 CALM      30.18F
PHILLIPS       NOT AVBL
ANTIGO         NOT AVBL
TOMAHAWK       NOT AVBL
MERRILL        NOT AVBL
$$

WIZ013-073-271000-
NORTHEAST WISCONSIN

CITY           SKY/WX    TMP DP  RH WIND       PRES   REMARKS
IRON MOUNTAIN  LGT RAIN  54  50  86 NW3       30.17R
MARINETTE      MOCLDY    55  50  82 CALM      30.16R
$$

WIZ017-030-035>037-045-271000-
CENTRAL WISCONSIN

CITY           SKY/WX    TMP DP  RH WIND       PRES   REMARKS
MEDFORD        NOT AVBL
WAUSAU         LGT RAIN  59  56  89 NW3       30.17S
MOSINEE        NOT AVBL
MARSHFIELD     LGT RAIN  60  54  80 N5        30.18S
WISC RAPIDS    CLOUDY    60  55  83 N5        30.18F
STEVENS POINT  NOT AVBL
WAUPACA        NOT AVBL
SHAWANO        CLOUDY    60  55  81 CALM      30.17F
CLINTONVILLE   NOT AVBL
$$

WIZ038-039-048-051-271000-
FOX VALLEY

CITY           SKY/WX    TMP DP  RH WIND       PRES   REMARKS
NWS GREEN BAY  CLOUDY    60  55  83 N6        30.16S
APPLETON       NOT AVBL
OSHKOSH        CLOUDY    63  57  81 VRB3      30.16R
FOND DU LAC    CLOUDY    62  56  80 N6        30.16R
$$

WIZ022-050-052-271000-
EAST CENTRAL WISCONSIN

CITY           SKY/WX    TMP DP  RH WIND       PRES   REMARKS
STURGEON BAY   MOCLDY    59  52  77 NE3       30.17S
MANITOWOC      NOT AVBL
SHEBOYGAN      CLOUDY    61  57  87 N6        30.14S
$$

LMZ563-521-522-541>543-271000-
LAKESHORE

STATION/POSITION TIME  TEMP    WIND        PRES    VSBY  WAVE
                       AIR SEA DIR/SP/G                  HT/PER
                 (UTC) (F)     (DEG/KT/KT) (MB)    (MI)  (FT/S)
SHEBOYGAN LKSHOR 0800   65 64  330/  9/ 10 1020.6R
KEWAUNEE LKSHORE 0800   64      30/ 11/ 14 1020.0R
ALGOMA MARINA    0800          350/  6/  8   N/A
NORTHPORT PIER   0800   63      40/  4/  7 1021.0R
N MID LAKE BUOY  0800   63 65  360/ 10/ 12 1020.6R         2/ 4
S GREEN BAY BUOY 0800   66     VRB 10      1022.1R
SISTER BAY LKSHO 0800   59        CALM       N/A
CHAMBERS ISLAND  0800   63     340/  8/ 10 1021.3R
MENOMINEE LKSHOR 0800   60     320/  6/  6 1022.0R
$$



USA.gov is the U.S. government's official web portal to all federal, state and local government web resources and services.